| time (UTC) | temp C | wind direction | speed KPH | gust KPH | rain 1hr cm | rain 24hr cm | rain mn cm | humidity % | barometer mb |
| 20260503185513 | 19 | 246 | 11.3 | 19.3 | 0.00 | 0.00 | 0.00 | 34 | 997.3 |
| 20260503184517 | 19 | 250 | 0.0 | 19.3 | 0.00 | 0.00 | 0.00 | 35 | 997.3 |
| 20260503184013 | 19 | 236 | 1.6 | 19.3 | 0.00 | 0.00 | 0.00 | 35 | 997.2 |
| 20260503183520 | 19 | 243 | 4.8 | 19.3 | 0.00 | 0.00 | 0.00 | 38 | 997.2 |
| 20260503182514 | 19 | 253 | 4.8 | 19.3 | 0.00 | 0.00 | 0.00 | 36 | 997.6 |
| 20260503181519 | 19 | 257 | 16.1 | 19.3 | 0.00 | 0.00 | 0.00 | 38 | 997.6 |
| 20260503181012 | 19 | 240 | 22.5 | 19.3 | 0.00 | 0.00 | 0.00 | 35 | 997.7 |
| 20260503180521 | 19 | 256 | 0.0 | 19.3 | 0.00 | 0.00 | 0.00 | 36 | 997.7 |
| 20260503175513 | 18 | 203 | 11.3 | 19.3 | 0.00 | 0.00 | 0.00 | 40 | 998.0 |
| 20260503174518 | 18 | 250 | 6.4 | 19.3 | 0.00 | 0.00 | 0.00 | 37 | 998.0 |
| 20260503174013 | 18 | 208 | 0.0 | 19.3 | 0.00 | 0.00 | 0.00 | 39 | 997.8 |
| 20260503173519 | 18 | 254 | 9.7 | 19.3 | 0.00 | 0.00 | 0.00 | 37 | 997.8 |
| 20260503172514 | 18 | 220 | 3.2 | 19.3 | 0.00 | 0.00 | 0.00 | 40 | 998.3 |
| 20260503171517 | 18 | 205 | 11.3 | 19.3 | 0.00 | 0.00 | 0.00 | 38 | 998.3 |
| 20260503171013 | 17 | 256 | 12.9 | 19.3 | 0.00 | 0.00 | 0.00 | 39 | 998.3 |
| 20260503151013 | 15 | 254 | 8.0 | 19.3 | 0.00 | 0.00 | 0.00 | 47 | 999.6 |
| 20260503150519 | 15 | 250 | 0.0 | 19.3 | 0.00 | 0.00 | 0.00 | 47 | 999.6 |
| 20260503131012 | 10 | 192 | 0.0 | 4.8 | 0.00 | 0.00 | 0.00 | 64 | 1000.5 |
| 20260503130517 | 10 | 192 | 0.0 | 4.8 | 0.00 | 0.00 | 0.00 | 64 | 1000.5 |
| 20260503110517 | 8 | 189 | 0.0 | 4.8 | 0.00 | 0.00 | 0.00 | 73 | 1000.9 |
| 20260503081517 | 8 | 220 | 0.0 | 8.0 | 0.00 | 0.00 | 0.00 | 64 | 1002.9 |
| 20260503081011 | 8 | 220 | 0.0 | 8.0 | 0.00 | 0.00 | 0.00 | 64 | 1003.0 |
| 20260503080517 | 8 | 220 | 0.0 | 8.0 | 0.00 | 0.00 | 0.00 | 64 | 1003.0 |
| 20260503072513 | 8 | 209 | 0.0 | 0.0 | 0.00 | 0.00 | 0.00 | 60 | 1003.2 |
| 20260503071012 | 8 | 209 | 0.0 | 0.0 | 0.00 | 0.00 | 0.00 | 57 | 1003.1 |
| 20260503054517 | 10 | 209 | 0.0 | 9.7 | 0.00 | 0.00 | 0.00 | 54 | 1004.0 |
| 20260503054012 | 10 | 209 | 0.0 | 9.7 | 0.00 | 0.00 | 0.00 | 54 | 1004.1 |
| 20260503053517 | 10 | 209 | 0.0 | 9.7 | 0.00 | 0.00 | 0.00 | 53 | 1004.1 |
| 20260503052511 | 10 | 200 | 0.0 | 9.7 | 0.00 | 0.00 | 0.00 | 52 | 1004.0 |
| 20260503051517 | 10 | 208 | 0.0 | 9.7 | 0.00 | 0.00 | 0.00 | 53 | 1004.0 |
| 20260503051012 | 10 | 208 | 1.6 | 9.7 | 0.00 | 0.00 | 0.00 | 52 | 1004.2 |
| 20260503050516 | 10 | 210 | 0.0 | 9.7 | 0.00 | 0.00 | 0.00 | 53 | 1004.2 |
| 20260503045513 | 10 | 210 | 0.0 | 8.0 | 0.00 | 0.00 | 0.00 | 51 | 1004.3 |
| 20260503044516 | 10 | 209 | 3.2 | 8.0 | 0.00 | 0.00 | 0.00 | 50 | 1004.3 |
| 20260503044012 | 10 | 209 | 0.0 | 8.0 | 0.00 | 0.00 | 0.00 | 50 | 1004.4 |
| 20260503042512 | 10 | 209 | 1.6 | 8.0 | 0.00 | 0.00 | 0.00 | 51 | 1004.8 |
| 20260503041517 | 10 | 208 | 0.0 | 8.0 | 0.00 | 0.00 | 0.00 | 50 | 1004.8 |
| 20260503041011 | 10 | 212 | 0.0 | 8.0 | 0.00 | 0.00 | 0.00 | 50 | 1004.9 |
| 20260503040516 | 10 | 216 | 0.0 | 8.0 | 0.00 | 0.00 | 0.00 | 50 | 1004.9 |
| 20260503035512 | 10 | 217 | 0.0 | 0.0 | 0.00 | 0.00 | 0.00 | 51 | 1005.1 |
| 20260503034516 | 10 | 224 | 1.6 | 0.0 | 0.00 | 0.00 | 0.00 | 51 | 1005.1 |
| 20260503034012 | 9 | 251 | 0.0 | 0.0 | 0.00 | 0.00 | 0.00 | 53 | 1005.6 |
| 20260503033517 | 8 | 253 | 0.0 | 0.0 | 0.00 | 0.00 | 0.00 | 54 | 1005.6 |
| 20260503032511 | 8 | 254 | 0.0 | 0.0 | 0.00 | 0.00 | 0.00 | 58 | 1005.8 |
| 20260503031516 | 8 | 254 | 0.0 | 0.0 | 0.00 | 0.00 | 0.00 | 58 | 1005.8 |
| 20260503031011 | 8 | 254 | 0.0 | 0.0 | 0.00 | 0.00 | 0.00 | 56 | 1006.0 |
| 20260503030518 | 8 | 254 | 0.0 | 0.0 | 0.00 | 0.00 | 0.00 | 57 | 1006.0 |
| 20260503025512 | 8 | 254 | 0.0 | 0.0 | 0.00 | 0.00 | 0.00 | 57 | 1006.2 |
| 20260503024516 | 9 | 254 | 0.0 | 0.0 | 0.00 | 0.00 | 0.00 | 56 | 1006.2 |
| 20260503024011 | 9 | 254 | 0.0 | 0.0 | 0.00 | 0.00 | 0.00 | 55 | 1006.2 |
| 20260503023517 | 9 | 254 | 0.0 | 0.0 | 0.00 | 0.00 | 0.00 | 54 | 1006.2 |
| 20260503022513 | 10 | 254 | 0.0 | 0.0 | 0.00 | 0.00 | 0.00 | 50 | 1006.3 |
| 20260503021517 | 10 | 254 | 0.0 | 0.0 | 0.00 | 0.00 | 0.00 | 49 | 1006.3 |
| 20260503021012 | 11 | 254 | 0.0 | 0.0 | 0.00 | 0.00 | 0.00 | 47 | 1006.6 |
| 20260503020518 | 11 | 254 | 0.0 | 0.0 | 0.00 | 0.00 | 0.00 | 47 | 1006.6 |
| 20260503015512 | 11 | 254 | 0.0 | 16.1 | 0.00 | 0.00 | 0.00 | 47 | 1006.5 |
| 20260503014517 | 12 | 254 | 0.0 | 16.1 | 0.00 | 0.00 | 0.00 | 45 | 1006.5 |
| 20260503014012 | 12 | 254 | 0.0 | 16.1 | 0.00 | 0.00 | 0.00 | 45 | 1006.5 |
| 20260503013517 | 12 | 254 | 0.0 | 16.1 | 0.00 | 0.00 | 0.00 | 45 | 1006.5 |
| 20260503012511 | 12 | 254 | 0.0 | 16.1 | 0.00 | 0.00 | 0.00 | 42 | 1006.6 |
| 20260503011516 | 12 | 254 | 0.0 | 16.1 | 0.00 | 0.00 | 0.00 | 40 | 1006.6 |
| 20260503011011 | 12 | 254 | 0.0 | 16.1 | 0.00 | 0.00 | 0.00 | 36 | 1006.9 |
| 20260503010516 | 12 | 254 | 0.0 | 16.1 | 0.00 | 0.00 | 0.00 | 36 | 1006.9 |
| 20260503005512 | 12 | 254 | 0.0 | 17.7 | 0.00 | 0.00 | 0.00 | 36 | 1006.9 |
| 20260503004518 | 13 | 246 | 3.2 | 17.7 | 0.00 | 0.00 | 0.00 | 35 | 1006.9 |
| 20260503004012 | 13 | 247 | 3.2 | 17.7 | 0.00 | 0.00 | 0.00 | 35 | 1007.0 |
| 20260503003517 | 13 | 250 | 8.0 | 17.7 | 0.00 | 0.00 | 0.00 | 34 | 1007.0 |
| 20260503002511 | 13 | 236 | 0.0 | 17.7 | 0.00 | 0.00 | 0.00 | 35 | 1007.1 |
| 20260503001517 | 13 | 256 | 0.0 | 17.7 | 0.00 | 0.00 | 0.00 | 34 | 1007.1 |
| 20260503001012 | 13 | 219 | 0.0 | 17.7 | 0.00 | 0.00 | 0.00 | 32 | 1007.5 |
| 20260503000517 | 13 | 236 | 8.0 | 17.7 | 0.00 | 0.00 | 0.00 | 32 | 1007.5 |
| 20260502235510 | 13 | 244 | 0.0 | 19.3 | 0.00 | 0.00 | 0.00 | 32 | 1007.6 |
| 20260502234516 | 13 | 251 | 1.6 | 19.3 | 0.00 | 0.00 | 0.00 | 31 | 1007.6 |
| 20260502234012 | 13 | 254 | 0.0 | 19.3 | 0.00 | 0.00 | 0.00 | 30 | 1007.6 |
| 20260502233516 | 14 | 253 | 0.0 | 19.3 | 0.00 | 0.00 | 0.00 | 30 | 1007.6 |
| 20260502232511 | 14 | 251 | 0.0 | 19.3 | 0.00 | 0.00 | 0.00 | 30 | 1007.7 |
| 20260502231518 | 14 | 246 | 3.2 | 19.3 | 0.00 | 0.00 | 0.00 | 27 | 1007.7 |
| 20260502231011 | 14 | 260 | 1.6 | 19.3 | 0.00 | 0.00 | 0.00 | 27 | 1007.8 |
| 20260502230516 | 14 | 253 | 4.8 | 19.3 | 0.00 | 0.00 | 0.00 | 27 | 1007.8 |
| 20260502225511 | 14 | 257 | 3.2 | 19.3 | 0.00 | 0.00 | 0.00 | 28 | 1007.9 |
| 20260502224517 | 14 | 246 | 0.0 | 19.3 | 0.00 | 0.00 | 0.00 | 28 | 1007.9 |
| 20260502224011 | 14 | 240 | 4.8 | 19.3 | 0.00 | 0.00 | 0.00 | 28 | 1007.9 |
| 20260502222511 | 14 | 244 | 4.8 | 19.3 | 0.00 | 0.00 | 0.00 | 28 | 1007.9 |
| 20260502221516 | 15 | 247 | 4.8 | 19.3 | 0.00 | 0.00 | 0.00 | 27 | 1007.9 |
| 20260502221011 | 14 | 241 | 11.3 | 19.3 | 0.00 | 0.00 | 0.00 | 27 | 1008.0 |
| 20260502215511 | 15 | 261 | 0.0 | 19.3 | 0.00 | 0.00 | 0.00 | 27 | 1008.1 |
| 20260502214516 | 15 | 253 | 17.7 | 19.3 | 0.00 | 0.00 | 0.00 | 27 | 1008.1 |
| 20260502214010 | 15 | 213 | 9.7 | 19.3 | 0.00 | 0.00 | 0.00 | 28 | 1008.2 |
| 20260502213519 | 15 | 244 | 4.8 | 19.3 | 0.00 | 0.00 | 0.00 | 26 | 1008.2 |
| 20260502212512 | 15 | 247 | 9.7 | 19.3 | 0.00 | 0.00 | 0.00 | 27 | 1008.4 |
| 20260502211516 | 15 | 253 | 9.7 | 19.3 | 0.00 | 0.00 | 0.00 | 25 | 1008.4 |
| 20260502211010 | 15 | 215 | 0.0 | 19.3 | 0.00 | 0.00 | 0.00 | 28 | 1008.4 |
| 20260502210516 | 15 | 188 | 0.0 | 19.3 | 0.00 | 0.00 | 0.00 | 29 | 1008.4 |
| 20260502205511 | 14 | 274 | 0.0 | 17.7 | 0.00 | 0.00 | 0.00 | 26 | 1008.8 |
| 20260502204516 | 14 | 251 | 11.3 | 17.7 | 0.00 | 0.00 | 0.00 | 26 | 1008.8 |
| 20260502204011 | 14 | 247 | 0.0 | 17.7 | 0.00 | 0.00 | 0.00 | 26 | 1008.9 |
| 20260502203518 | 14 | 247 | 0.0 | 17.7 | 0.00 | 0.00 | 0.00 | 26 | 1008.9 |
| 20260502202510 | 14 | 184 | 0.0 | 17.7 | 0.00 | 0.00 | 0.00 | 26 | 1009.3 |
| 20260502201516 | 14 | 240 | 0.0 | 17.7 | 0.00 | 0.00 | 0.00 | 26 | 1009.3 |
| 20260502201010 | 15 | 254 | 8.0 | 17.7 | 0.00 | 0.00 | 0.00 | 26 | 1009.4 |
| 20260502200515 | 15 | 241 | 4.8 | 17.7 | 0.00 | 0.00 | 0.00 | 27 | 1009.4 |
| 20260502195510 | 15 | 192 | 6.4 | 22.5 | 0.00 | 0.00 | 0.00 | 27 | 1009.8 |
| 20260502194516 | 14 | 227 | 16.1 | 22.5 | 0.00 | 0.00 | 0.00 | 27 | 1009.8 |
| 20260502194011 | 13 | 306 | 8.0 | 22.5 | 0.00 | 0.00 | 0.00 | 27 | 1010.0 |
| 20260502193517 | 13 | 350 | 8.0 | 22.5 | 0.00 | 0.00 | 0.00 | 26 | 1010.0 |
| 20260502192510 | 13 | 176 | 0.0 | 22.5 | 0.00 | 0.00 | 0.00 | 28 | 1010.3 |
| 20260502191516 | 13 | 234 | 0.0 | 22.5 | 0.00 | 0.00 | 0.00 | 27 | 1010.3 |
| 20260502191011 | 13 | 271 | 0.0 | 22.5 | 0.00 | 0.00 | 0.00 | 27 | 1010.4 |
| 20260502190516 | 13 | 264 | 16.1 | 22.5 | 0.00 | 0.00 | 0.00 | 27 | 1010.4 |